CW5039 Weather Reports


Display with metric or nautical units.
time (UTC)temp
F
wind
direction
speed
MPH
gust
MPH
rain 1hr
in
rain 24hr
in
rain mn
in
humidity
%
barometer
mb
20260505014405 66 95 5.0 9.0 0.00 0.00 0.00 75 1030.9
20260505013405 66 89 4.0 9.0 0.00 0.00 0.00 74 1031.1
20260505012906 66 95 5.0 9.0 0.00 0.00 0.00 73 1031.2
20260505010405 65 69 1.0 3.0 0.00 0.00 0.00 74 1031.4
20260505004904 64 72 5.0 6.0 0.00 0.00 0.00 75 1031.7
20260505002905 64 87 1.0 3.0 0.00 0.00 0.00 74 1032.0
20260505000906 65 59 5.0 9.0 0.00 0.00 0.00 73 1032.3
20260504235905 64 97 1.0 3.0 0.00 0.00 0.00 73 1032.4
20260504235405 64 97 0.0 1.0 0.00 0.00 0.00 74 1032.4
20260504234405 64 99 2.0 3.0 0.00 0.00 0.00 74 1032.5
20260504233405 64 151 2.0 3.0 0.00 0.00 0.00 72 1032.7
20260504231905 63 211 0.0 0.0 0.00 0.00 0.00 74 1032.9
20260504230404 63 212 0.0 1.0 0.00 0.00 0.00 77 1033.1
20260504225905 63 212 0.0 2.0 0.00 0.00 0.00 77 1033.1
20260504225405 62 212 2.0 5.0 0.00 0.00 0.00 79 1033.1
20260504224405 61 223 1.0 3.0 0.00 0.00 0.00 80 1033.1
20260504223905 61 223 2.0 3.0 0.00 0.00 0.00 80 1033.1
20260504222904 60 231 0.0 1.0 0.00 0.00 0.00 81 1033.2
20260504222403 60 231 0.0 2.0 0.00 0.00 0.00 82 1033.1
20260504221405 60 240 2.0 3.0 0.00 0.00 0.00 82 1033.1
20260504220905 60 246 2.0 3.0 0.00 0.00 0.00 83 1033.1
20260504220405 59 246 0.0 0.0 0.00 0.00 0.00 82 1033.2
20260504215905 59 246 0.0 0.0 0.00 0.00 0.00 83 1033.2
20260504215405 58 246 0.0 2.0 0.00 0.00 0.00 83 1033.2
20260504214904 58 245 2.0 3.0 0.00 0.00 0.00 84 1033.2
20260504213905 58 214 1.0 2.0 0.00 0.00 0.00 85 1033.1
20260504211405 56 206 3.0 3.0 0.00 0.00 0.00 87 1033.1
20260504210405 55 224 2.0 3.0 0.00 0.00 0.00 89 1033.1
20260504203404 54 287 1.0 3.0 0.00 0.00 0.00 90 1033.2
20260504202405 54 290 0.0 1.0 0.00 0.00 0.00 91 1033.3
20260504201405 54 290 0.0 1.0 0.00 0.00 0.00 92 1033.2
20260504195404 52 282 2.0 3.0 0.00 0.00 0.00 91 1033.1
20260504194904 52 198 0.0 1.0 0.00 0.00 0.00 92 1033.0
20260504194405 52 193 1.0 3.0 0.00 0.00 0.00 91 1032.9
20260504193905 52 193 3.0 3.0 0.00 0.00 0.00 91 1032.8
20260504192405 53 239 0.0 2.0 0.00 0.00 0.00 92 1032.8
20260504191405 52 243 2.0 3.0 0.00 0.00 0.00 92 1032.8
20260504185406 53 252 1.0 1.0 0.00 0.00 0.00 92 1032.8
20260504183905 53 171 0.0 0.0 0.00 0.00 0.00 92 1032.8
20260504181906 53 171 0.0 0.0 0.00 0.00 0.00 92 1032.9
20260504180906 53 171 0.0 2.0 0.00 0.00 0.00 92 1032.9
20260504175406 53 173 3.0 5.0 0.00 0.00 0.00 92 1032.8
20260504174406 52 174 4.0 6.0 0.00 0.00 0.00 92 1032.8
20260504173905 52 174 3.0 5.0 0.00 0.00 0.00 92 1032.8
20260504173406 52 187 5.0 6.0 0.00 0.00 0.00 92 1032.9
20260504172906 52 224 1.0 3.0 0.00 0.00 0.00 92 1033.0
20260504171406 52 240 2.0 3.0 0.00 0.00 0.00 92 1033.0
20260504160406 51 223 1.0 2.0 0.00 0.00 0.00 93 1033.0
20260504140406 52 270 1.0 3.0 0.00 0.00 0.00 91 1034.2
20260504100406 50 43 0.0 2.0 0.00 0.00 0.00 90 1034.7
20260504081405 56 96 3.0 3.0 0.00 0.00 0.00 81 1034.4
20260504080404 57 40 1.0 2.0 0.00 0.00 0.00 81 1034.4
20260504070405 59 74 2.0 3.0 0.00 0.00 0.00 77 1033.6
20260504050405 62 180 0.0 1.0 0.00 0.00 0.00 74 1032.9
20260504045405 62 180 1.0 2.0 0.00 0.00 0.00 73 1032.9
20260504044906 62 129 1.0 2.0 0.00 0.00 0.00 73 1032.9
20260504044405 63 128 0.0 1.0 0.00 0.00 0.00 72 1032.9
20260504043905 63 127 1.0 2.0 0.00 0.00 0.00 69 1033.0
20260504043405 64 123 0.0 1.0 0.00 0.00 0.00 69 1033.0
20260504042905 64 123 0.0 0.0 0.00 0.00 0.00 65 1033.0
20260504042406 64 123 0.0 0.0 0.00 0.00 0.00 66 1033.0
20260504041405 64 123 0.0 0.0 0.00 0.00 0.00 64 1033.0
20260504033405 63 122 0.0 1.0 0.00 0.00 0.00 66 1032.9
20260504032905 63 122 0.0 2.0 0.00 0.00 0.00 67 1032.9
20260504031906 62 123 1.0 3.0 0.00 0.00 0.00 71 1033.0
20260504025906 63 133 5.0 7.0 0.00 0.00 0.00 67 1032.9
20260504024905 65 143 3.0 5.0 0.00 0.00 0.00 64 1032.9
20260504023406 65 222 2.0 5.0 0.00 0.00 0.00 63 1032.9
20260504022405 65 203 2.0 3.0 0.00 0.00 0.00 65 1033.0
20260504021905 64 117 1.0 3.0 0.00 0.00 0.00 64 1033.1
20260504020406 65 129 2.0 3.0 0.00 0.00 0.00 63 1033.1